Regional Weather Roundup
Issued by NWS

Home | Current Version | Previous Version | Graphics & Text | Print | Product List | Glossary On
Versions: 1 2 3 4 5 6 7 8 9 10 11 12 13 14 15 16 17 18 19 20 21 22 23 24 25 26 27 28 29 30 31 32 33 34 35 36 37 38 39 40 41 42 43 44 45 46 47 48 49 50
503
ASUS43 KFSD 240502
RWRSD

WEATHER ROUNDUP FOR SOUTH DAKOTA
NATIONAL WEATHER SERVICE SIOUX FALLS SD
1200 AM CDT SUN JUL 24 2016

NOTE: "FAIR" INDICATES FEW OR NO CLOUDS BELOW 12,000 FEET WITH NO
SIGNIFICANT WEATHER AND/OR OBSTRUCTIONS TO VISIBILITY.


SDZ001>005-009-010-012>017-240600-
NORTHWEST AND NORTH CENTRAL SOUTH DAKOTA

CITY           SKY/WX    TMP DP  RH WIND       PRES   REMARKS
BUFFALO          N/A     67  44  43 N12       29.98R
FAITH            N/A     67  41  38 N13       29.98R
MOBRIDGE       CLEAR     68  57  68 NW7       29.89R
$$

SDZ012>016-024>037-041>051-057-063-072>074-240600-
SOUTHWEST AND SOUTH CENTRAL SOUTH DAKOTA

CITY           SKY/WX    TMP DP  RH WIND       PRES   REMARKS
RAPID CTY ARPT CLEAR     65  41  41 N10       30.04R
PIERRE         PTCLDY    69  56  62 W5        29.90R
CUSTER         CLEAR     65  35  33 N6        30.18S
ELLSWORTH AFB  CLEAR     73  39  29 NW12      30.03S
PHILIP         CLEAR     64  50  60 NW6       29.97R
PINE RIDGE     CLEAR     64  51  62 E7        30.04R
WINNER         FAIR      72  57  59 CALM      29.95R
$$

SDZ004>011-016>023-039-040-240600-
NORTHEAST SOUTH DAKOTA

CITY           SKY/WX    TMP DP  RH WIND       PRES   REMARKS
ABERDEEN       CLEAR     66  63  90 SW6       29.85R
WATERTOWN      CLEAR     76  70  82 NW15G22   29.85R
BROOKINGS      CLEAR     77  71  82 NW15G23   29.83R
SISSETON         N/A     72  69  90 N7        29.81R
$$

SDZ017-020-022-023-036>040-048>070-240600-
SOUTHEAST SOUTH DAKOTA

CITY           SKY/WX    TMP DP  RH WIND       PRES   REMARKS
SIOUX FALLS    PTCLDY    80  73  79 NW13      29.82R
HURON          CLEAR     69  67  93 NW6       29.85R
CHAMBERLAIN    PTCLDY    73  63  69 CALM      29.91R
MITCHELL       CLEAR     75  68  78 N7        29.86R
YANKTON        CLEAR     82  72  69 NW22G28   29.81R
$$

ABBREVIATIONS USED IN REMARKS
   TC - TEMPERATURE IN CELSIUS
  WCI - WIND CHILL INDEX
   HX - HEAT INDEX
  VSB - VISIBILITY





USA.gov is the U.S. government's official web portal to all federal, state and local government web resources and services.